User: anonymous   Login
Location: Tyler Bend Campground
(35.9875°N, 92.7606°W)
Time: 05:06:00
(UTC-05:00)
Language:

CZ-2C R/B - Orbit

View from above orbital plane
View from above orbital plane
View from above satellite
View from above satellite

Ground track
Ground track

The orbit data is extracted from the following two-line orbital elements,

1 36089U 09061B   16206.85314574  .00000025  00000-0  17760-4 0  9996
2 36089  98.0510 217.2695 0081478 334.7743  85.0669 14.49587967354288
Epoch (UTC): 24 July 2016 20:28:31
Eccentricity: 0.0081478
inclination: 98.0510°
perigee height: 669 km
apogee height: 785 km
right ascension of ascending node: 217.2695°
argument of perigee: 334.7743°
revolutions per day: 14.49587967
mean anomaly at epoch: 85.0669°
orbit number at epoch: 35428

The dashed part of the orbit path shows where the satellite is in the earth's shadow,  

DLR